Regional Weather Roundup
Issued by NWS

Home | Current Version | Previous Version | Text Only | Print | Product List | Glossary Off
Versions: 1 2 3 4 5 6 7 8 9 10 11 12 13 14 15 16 17 18 19 20 21 22 23 24 25 26 27 28 29 30 31 32 33 34 35 36 37 38 39 40 41 42 43 44 45 46 47 48 49 50

000
ASUS45 KPSR 311000
RWRAZ

PRELIMINARY ARIZONA REGIONAL HOURLY WEATHER ROUNDUP
NATIONAL WEATHER SERVICE PHOENIX AZ
300 AM MST THU JUL 31 2014

NOTE: FAIR INDICATES FEW OR NO CLOUDS BELOW 12,000 FEET WITH NO
SIGNIFICANT WEATHER AND/OR OBSTRUCTIONS TO VISIBILITY.

AZZ001>003-036-311100-
NORTHWEST ARIZONA

CITY           SKY/WX    TMP DP  RH WIND       PRES   REMARKS
KINGMAN        PTCLDY    77  49  37 SE10      30.03S
$$

AZZ004>008-015-016-018-311100-
NORTH CENTRAL ARIZONA

CITY           SKY/WX    TMP DP  RH WIND       PRES   REMARKS
GRAND CANYON   CLEAR     54  47  77 NE3       30.29F
PRESCOTT       PTCLDY    71  52  50 S7        30.16S
FLAGSTAFF      PTCLDY    59  47  64 CALM      30.31F
PAYSON         CLEAR     72  48  43 CALM      30.19S
PAGE           CLEAR     81  49  32 NW6       30.10S
$$

AZZ009>014-017-311100-
NORTHEAST ARIZONA

CITY           SKY/WX    TMP DP  RH WIND       PRES   REMARKS
WINSLOW        NOT AVBL
SAINT JOHNS    MOCLDY    71  49  45 N3        30.20S
WINDOW ROCK    CLOUDY    64  53  67 N6        30.28F
$$

AZZ023-311100-
GREATER PHOENIX AREA

CITY           SKY/WX    TMP DP  RH WIND       PRES   REMARKS
PHOENIX        PTCLDY    93  57  29 E7        29.84R
DEER VALLEY    CLEAR     90  56  31 SE8       29.86R
SCOTTSDALE     CLEAR     90  57  32 S5        29.89R
$$

AZZ027-028-311100-
SOUTHWEST MARICOPA COUNTY AND PINAL COUNTY

CITY           SKY/WX    TMP DP  RH WIND       PRES   REMARKS
CASA GRANDE    CLEAR     88  55  33 CALM      29.89S
$$

AZZ503-504-507>509-311100-
SOUTHEAST ARIZONA

CITY           SKY/WX    TMP DP  RH WIND       PRES   REMARKS
TUCSON         CLOUDY    83  58  42 SE8       30.02R
DAVIS-MONTHAN  CLOUDY    81  60  50 SE8       30.01R
NOGALES        CLOUDY    70  61  73 S3        30.13R
SIERRA VISTA   CLOUDY    75  52  43 SW5       30.18R
SAFFORD        PTCLDY    83  53  35 NW5       30.01R
$$

AZZ020-021-025-026-031-311100-
SOUTHWEST ARIZONA

CITY           SKY/WX    TMP DP  RH WIND       PRES   REMARKS
YUMA           CLEAR     92  58  31 S5        29.77S
$$

CAZ031-033-041-043-047-048-061-311100-
SOUTHERN CALIFORNIA

CITY           SKY/WX    TMP DP  RH WIND       PRES   REMARKS
DOWNTOWN L.A.  CLEAR     68  64  87 CALM      29.91F
L.A. AIRPORT   PTCLDY    67  62  84 W3        29.91F
SAN DIEGO      MOCLDY    71  67  87 W3        29.93F
BURBANK        CLEAR     72  59  63 CALM      29.92F
ONTARIO        PTCLDY    74  57  55 CALM      29.92F
RIVERSIDE      CLEAR     74  58  57 CALM      29.93F
PALM SPRINGS   CLEAR     93  54  26 W6        29.81F
EL CENTRO NAS  CLEAR     91  49  23 W10       29.75S
IMPERIAL       CLEAR     88  55  32 W7        29.75R
BLYTHE           N/A    N/A N/A N/A MISG      29.76S
$$

NVZ020-UTZ003-311100-
SOUTHERN NEVADA-UTAH

CITY           SKY/WX    TMP DP  RH WIND       PRES   REMARKS
LAS VEGAS      NOT AVBL
SALT LAKE CITY PTCLDY    65  55  70 N8        30.16F
$$

NMZ009-TXZ055-311100-
NEW MEXICO-WEST TEXAS

CITY           SKY/WX    TMP DP  RH WIND       PRES   REMARKS
ALBUQUERQUE    CLOUDY    65  58  78 E14       30.28R
EL PASO        CLOUDY    76  60  57 E16       30.17R
$$


........................KEY........................
SKY/WX - SKY CONDITION/WEATHER
TMP    - TEMPERATURE IN FAHRENHEIT
DP     - DEW POINT IN FAHRENHEIT
RH     - RELATIVE HUMIDITY IN PERCENT
WIND   - DIRECTION AND SPEED IN MILES PER HOUR (MPH)
VRB    - VARIABLE WIND DIRECTION
PRES   - MEAN SEA LEVEL PRESSURE IN INCHES OF MERCURY
         F - FALLING PRESSURE   R - RISING PRESSURE
         S - STEADY PRESSURE
VSB    - VISIBILITY IN MILES
HX     - HEAT INDEX IN FAHRENHEIT
WCI    - WIND CHILL INDEX IN FAHRENHEIT
TC     - TEMPERATURE IN CELSIUS WHICH IS ALSO KNOWN AS
         TEMPERATURE IN CENTIGRADE
AFB    - AIR FORCE BASE
         LUKE AFB IS LUKE AIR FORCE BASE
         DAVIS-MONTHAN IS DAVIS-MONTHAN AIR FORCE BASE
NAS    - NAVAL AIR STATION
         EL CENTRO NAS IS EL CENTRO NAVAL AIR STATION
N/A    - NOT AVAILABLE


USA.gov is the U.S. government's official web portal to all federal, state and local government web resources and services.